Temp
-7 -7 -7 -7 -7 -7 -7 -7 -7 -7 -7 -7 -7 -7 -7 -7 -7 -7 -8 -8 -8 -8 -8 -8 -8 -8 -8 -8 -8 -9 -9 -9 -9 -9 -9 -9 -9 -10 -10 -10 -10 -10
-7 -7 -7 -7 -7 -7 -7 -7 -7 -7 -7 -7 -7 -7 -8 -8 -8 -8 -8 -8 -8 -8 -8 -8 -8 -8 -8 -8 -8 -9 -9 -9 -9 -9 -9 -9 -10 -10 -10 -10 -10 -10
-7 -7 -7 -7 -7 -7 -8 -8 -8 -8 -8 -8 -8 -8 -8 -8 -8 -8 -8 -8 -8 -8 -8 -8 -8 -8 -8 -8 -9 -9 -9 -9 -9 -9 -9 -10 -10 -10 -10 -10 -11 -11
-7 -7 -7 -7 -7 -7 -8 -8 -8 -8 -8 -8 -8 -8 -8 -8 -8 -8 -8 -8 -8 -8 -8 -8 -8 -8 -8 -9 -9 -9 -9 -9 -9 -9 -10 -10 -10 -10 -11 -11 -11 -11
-7 -7 -8 -8 -8 -8 -8 -8 -8 -8 -8 -8 -8 -8 -8 -8 -8 -8 -8 -8 -8 -8 -8 -8 -8 -8 -9 -9 -9 -9 -9 -9 -9 -10 -10 -10 -10 -10 -11 -11 -11 -11
-8 -8 -8 -8 -8 -8 -8 -8 -8 -8 -8 -8 -8 -8 -8 -8 -8 -8 -8 -8 -8 -8 -8 -8 -9 -9 -9 -9 -9 -9 -9 -9 -10 -10 -10 -11 -11 -11 -11 -11 -11 -11
-8 -8 -8 -8 -8 -8 -8 -8 -8 -8 -8 -8 -8 -8 -8 -8 -8 -8 -8 -8 -8 -8 -9 -9 -9 -9 -9 -9 -9 -9 -10 -10 -10 -10 -11 -11 -12 -11 -11 -11 -12 -12
-8 -8 -8 -8 -8 -8 -8 -8 -8 -8 -8 -8 -8 -8 -8 -8 -8 -8 -8 -8 -9 -9 -9 -9 -9 -9 -9 -9 -9 -9 -10 -10 -10 -10 -11 -11 -12 -12 -12 -12 -12 -12
-8 -8 -8 -8 -8 -8 -8 -8 -8 -8 -8 -8 -8 -8 -8 -8 -8 -8 -8 -9 -9 -9 -9 -9 -9 -9 -9 -9 -9 -10 -10 -10 -10 -11 -11 -12 -12 -12 -13 -13 -13 -13
-9 -8 -9 -9 -8 -8 -8 -8 -8 -8 -8 -8 -8 -8 -8 -8 -9 -9 -9 -9 -9 -9 -9 -9 -9 -10 -10 -10 -10 -10 -10 -10 -11 -11 -12 -12 -12 -13 -13 -13 -13 -13
-9 -9 -9 -9 -9 -9 -9 -8 -8 -8 -8 -8 -8 -8 -9 -9 -9 -9 -9 -9 -9 -9 -9 -9 -10 -10 -10 -10 -10 -10 -10 -11 -11 -11 -12 -12 -12 -13 -13 -14 -14 -14
-9 -9 -9 -9 -9 -9 -9 -9 -9 -9 -9 -9 -9 -9 -9 -9 -9 -9 -9 -9 -9 -10 -10 -10 -10 -10 -10 -10 -10 -11 -11 -11 -11 -11 -12 -13 -13 -13 -13 -14 -14 -14
-9 -9 -9 -9 -9 -9 -9 -9 -9 -9 -9 -9 -9 -9 -9 -9 -9 -9 -9 -9 -10 -10 -10 -10 -10 -10 -10 -10 -11 -11 -10 -11 -11 -11 -12 -13 -13 -13 -13 -14 -14 -14
-9 -9 -9 -9 -9 -9 -9 -9 -9 -9 -9 -9 -9 -9 -9 -9 -9 -9 -9 -9 -10 -10 -10 -10 -10 -10 -10 -10 -11 -11 -11 -11 -11 -12 -12 -13 -13 -13 -13 -14 -14 -14
-10 -9 -9 -9 -9 -9 -9 -9 -9 -9 -9 -9 -9 -9 -9 -9 -9 -9 -9 -10 -10 -10 -10 -11 -11 -11 -11 -11 -11 -11 -11 -11 -12 -12 -12 -12 -12 -13 -13 -14 -14 -14
-10 -9 -9 -9 -9 -9 -9 -9 -9 -9 -10 -9 -9 -9 -9 -9 -9 -9 -10 -10 -10 -11 -11 -11 -11 -11 -11 -11 -11 -11 -11 -12 -12 -13 -13 -13 -13 -13 -13 -14 -14 -14
-9 -9 -9 -10 -10 -10 -10 -9 -10 -10 -10 -9 -9 -9 -9 -9 -9 -10 -10 -11 -11 -11 -11 -11 -11 -11 -11 -11 -11 -11 -11 -12 -13 -13 -13 -14 -13 -13 -13 -14 -14 -14
-9 -9 -10 -10 -10 -10 -10 -10 -10 -10 -10 -10 -10 -9 -10 -10 -10 -10 -11 -11 -11 -11 -11 -11 -11 -11 -12 -12 -12 -12 -12 -12 -13 -13 -14 -14 -14 -14 -13 -14 -14 -14
-9 -10 -10 -10 -10 -10 -10 -10 -10 -10 -10 -10 -10 -10 -10 -10 -10 -10 -11 -11 -11 -11 -11 -11 -11 -12 -12 -12 -12 -12 -12 -12 -13 -13 -14 -14 -14 -14 -14 -14 -14 -14
-10 -10 -10 -10 -10 -10 -10 -10 -10 -10 -10 -10 -10 -10 -10 -10 -10 -11 -11 -11 -11 -12 -12 -12 -12 -12 -12 -13 -13 -13 -13 -13 -13 -13 -14 -14 -14 -14 -14 -14 -14 -14
-11 -10 -10 -10 -10 -10 -10 -10 -10 -10 -10 -10 -11 -11 -11 -11 -11 -11 -11 -12 -12 -12 -12 -12 -12 -12 -13 -13 -13 -13 -13 -14 -14 -14 -14 -14 -15 -15 -14 -14 -14 -14
-11 -11 -10 -10 -10 -10 -10 -10 -10 -10 -10 -11 -11 -11 -12 -12 -12 -12 -12 -12 -12 -12 -12 -13 -13 -13 -13 -14 -13 -14 -14 -14 -14 -14 -14 -15 -15 -15 -14 -14 -14 -14
-11 -10 -10 -10 -10 -10 -10 -10 -10 -10 -11 -11 -11 -12 -12 -12 -12 -12 -12 -12 -12 -12 -13 -13 -13 -13 -13 -14 -14 -14 -14 -14 -15 -15 -15 -15 -15 -15 -14 -14 -14 -14
-10 -10 -10 -11 -11 -11 -11 -11 -11 -11 -11 -11 -11 -12 -12 -12 -12 -12 -12 -12 -13 -13 -13 -13 -13 -13 -14 -14 -14 -14 -15 -15 -15 -15 -15 -15 -15 -15 -15 -15 -15 -15
-10 -10 -11 -11 -11 -11 -11 -11 -11 -11 -11 -11 -11 -12 -12 -12 -12 -12 -12 -13 -13 -14 -14 -13 -14 -14 -14 -14 -15 -15 -15 -15 -15 -15 -15 -15 -15 -15 -15 -15 -15 -15
-10 -11 -11 -12 -11 -11 -11 -12 -12 -12 -12 -12 -12 -12 -12 -12 -12 -12 -12 -13 -13 -14 -14 -14 -14 -14 -15 -15 -15 -15 -15 -15 -15 -15 -15 -15 -15 -15 -15 -15 -15 -15
Height
5901 5899 5898 5897 5895 5893 5892 5890 5888 5887 5885 5883 5881 5879 5878 5876 5874 5873 5871 5870 5868 5866 5864 5862 5861 5859 5857 5854 5851 5848 5845 5843 5840 5838 5836 5834 5833 5831 5829 5827 5825 5824
5898 5896 5895 5893 5892 5890 5888 5887 5885 5884 5882 5880 5878 5876 5875 5873 5871 5870 5868 5866 5865 5863 5861 5859 5857 5855 5853 5851 5848 5845 5842 5839 5837 5835 5832 5830 5828 5827 5825 5823 5821 5820
5894 5893 5892 5890 5889 5887 5885 5883 5882 5880 5879 5877 5876 5874 5872 5870 5868 5866 5865 5863 5861 5859 5857 5855 5853 5851 5848 5847 5844 5841 5838 5835 5833 5831 5828 5825 5823 5821 5819 5817 5815 5814
5891 5890 5888 5887 5885 5883 5882 5880 5878 5877 5876 5874 5872 5870 5869 5867 5865 5863 5861 5860 5857 5855 5853 5851 5849 5847 5844 5842 5839 5837 5834 5831 5828 5826 5823 5820 5818 5816 5814 5812 5810 5808
5887 5886 5885 5884 5882 5880 5878 5876 5875 5874 5872 5871 5869 5867 5865 5863 5861 5859 5857 5855 5853 5851 5849 5847 5844 5842 5840 5837 5834 5831 5829 5826 5823 5820 5817 5815 5812 5811 5808 5807 5805 5803
5884 5882 5881 5880 5878 5876 5874 5872 5871 5869 5869 5867 5865 5863 5861 5859 5857 5855 5853 5851 5848 5846 5844 5841 5839 5837 5835 5832 5829 5826 5823 5820 5817 5814 5811 5808 5806 5804 5802 5800 5799 5797
5880 5879 5877 5876 5874 5872 5870 5868 5866 5865 5865 5863 5862 5860 5857 5855 5853 5850 5848 5846 5843 5841 5838 5836 5834 5831 5829 5827 5824 5821 5818 5814 5812 5808 5804 5801 5799 5798 5796 5795 5793 5791
5877 5875 5874 5872 5870 5868 5866 5864 5863 5862 5861 5859 5857 5855 5853 5850 5848 5846 5843 5841 5838 5835 5833 5831 5828 5826 5824 5821 5818 5816 5812 5809 5806 5803 5799 5795 5793 5792 5790 5788 5786 5784
5873 5872 5870 5869 5866 5864 5861 5860 5859 5858 5857 5856 5854 5851 5849 5846 5844 5841 5838 5836 5834 5831 5828 5825 5823 5821 5818 5815 5812 5809 5806 5803 5800 5797 5793 5790 5787 5785 5784 5782 5780 5777
5869 5868 5867 5865 5862 5859 5857 5856 5855 5854 5853 5852 5850 5847 5844 5841 5839 5837 5834 5831 5828 5825 5822 5820 5818 5816 5813 5809 5806 5802 5799 5797 5794 5790 5787 5784 5782 5779 5778 5775 5773 5770
5866 5864 5863 5861 5858 5855 5853 5851 5851 5849 5848 5846 5844 5842 5840 5837 5834 5832 5830 5827 5824 5820 5817 5814 5812 5810 5808 5805 5800 5795 5792 5790 5788 5785 5781 5779 5776 5773 5771 5769 5766 5763
5863 5861 5859 5857 5853 5850 5848 5847 5846 5845 5843 5841 5840 5838 5836 5833 5830 5827 5824 5822 5819 5816 5812 5808 5805 5803 5802 5800 5796 5790 5786 5783 5780 5778 5776 5773 5770 5767 5764 5762 5760 5757
5859 5857 5855 5851 5848 5846 5844 5843 5842 5841 5839 5837 5835 5833 5830 5828 5826 5823 5820 5817 5814 5811 5807 5804 5800 5797 5796 5794 5790 5786 5783 5779 5774 5770 5769 5767 5764 5761 5758 5755 5753 5751
5855 5853 5851 5846 5843 5842 5840 5839 5838 5837 5835 5832 5830 5828 5825 5823 5821 5818 5815 5812 5809 5806 5802 5799 5795 5792 5791 5789 5785 5781 5778 5776 5771 5766 5763 5761 5759 5756 5753 5750 5748 5746
5850 5848 5845 5841 5839 5838 5837 5835 5834 5833 5830 5828 5826 5823 5820 5818 5815 5813 5810 5807 5804 5801 5797 5794 5791 5788 5785 5783 5780 5776 5772 5770 5767 5763 5760 5757 5755 5752 5748 5745 5743 5742
5846 5843 5839 5836 5835 5834 5833 5832 5830 5828 5826 5823 5821 5819 5816 5813 5810 5807 5805 5802 5799 5796 5792 5789 5786 5784 5780 5777 5774 5771 5767 5763 5761 5759 5756 5753 5751 5748 5745 5742 5740 5738
5841 5837 5834 5832 5831 5830 5829 5827 5826 5824 5822 5819 5816 5814 5811 5808 5805 5803 5800 5797 5794 5790 5787 5784 5781 5778 5775 5772 5769 5766 5762 5758 5755 5754 5751 5748 5746 5744 5742 5740 5738 5736
5835 5832 5829 5828 5828 5826 5825 5823 5821 5819 5817 5814 5812 5809 5807 5804 5800 5798 5795 5792 5789 5786 5784 5781 5777 5774 5770 5766 5763 5759 5756 5754 5751 5749 5747 5744 5742 5740 5738 5736 5734 5733
5830 5827 5825 5824 5824 5823 5821 5819 5817 5815 5812 5809 5807 5805 5802 5799 5795 5792 5789 5787 5784 5782 5779 5776 5773 5769 5765 5762 5758 5754 5751 5748 5747 5745 5743 5740 5737 5736 5734 5733 5731 5729
5825 5823 5822 5821 5820 5819 5818 5816 5813 5810 5807 5804 5802 5799 5796 5793 5790 5786 5784 5782 5779 5776 5773 5771 5768 5765 5761 5758 5755 5751 5748 5745 5742 5741 5739 5736 5734 5732 5730 5729 5728 5726
5822 5820 5819 5817 5816 5815 5813 5811 5808 5805 5803 5800 5797 5794 5791 5788 5784 5781 5778 5776 5774 5771 5768 5764 5762 5760 5756 5753 5750 5747 5744 5741 5738 5736 5734 5732 5730 5728 5726 5725 5724 5723
5818 5817 5816 5814 5812 5810 5808 5806 5803 5800 5798 5796 5793 5789 5786 5783 5779 5776 5774 5771 5768 5765 5763 5759 5756 5754 5751 5748 5744 5741 5738 5736 5733 5731 5730 5728 5726 5724 5722 5720 5719 5719
5815 5814 5813 5811 5808 5806 5803 5800 5798 5796 5794 5791 5788 5785 5782 5778 5774 5772 5769 5765 5762 5759 5757 5755 5752 5748 5745 5742 5738 5735 5733 5731 5728 5727 5726 5724 5722 5720 5718 5716 5714 5713
5812 5810 5808 5806 5804 5801 5797 5794 5792 5790 5788 5786 5784 5781 5777 5772 5769 5766 5764 5760 5756 5754 5751 5749 5746 5743 5740 5737 5734 5731 5728 5726 5724 5723 5722 5721 5719 5717 5714 5712 5710 5709
5807 5805 5804 5802 5800 5796 5793 5789 5786 5784 5782 5781 5778 5775 5772 5768 5764 5761 5758 5755 5752 5748 5745 5742 5739 5736 5733 5732 5730 5727 5724 5722 5720 5720 5719 5717 5716 5714 5711 5708 5706 5705
5803 5800 5799 5798 5796 5792 5789 5786 5782 5779 5777 5775 5772 5770 5767 5764 5760 5756 5753 5750 5748 5745 5741 5737 5733 5729 5727 5727 5726 5724 5720 5718 5717 5716 5715 5714 5712 5711 5708 5705 5703 5701
Wind_Speed
28 29 30 31 32 32 33 33 33 33 33 34 34 34 35 35 35 35 36 36 36 36 37 37 37 38 38 38 39 41 41 42 43 43 43 43 43 43 43 42 42 41
29 30 32 33 33 33 33 34 35 35 35 35 35 36 36 36 36 36 36 36 37 37 37 38 38 39 39 39 40 41 42 43 43 44 44 44 44 44 44 44 43 43
29 31 33 34 34 34 34 35 35 36 36 36 36 36 36 36 36 37 37 37 37 38 38 38 39 40 40 41 41 42 43 43 45 46 46 45 45 45 45 45 45 44
30 32 35 36 36 36 35 35 36 36 37 37 37 37 37 37 37 37 37 37 38 38 39 39 40 41 41 42 42 43 43 45 46 47 47 46 46 46 45 45 46 46
32 34 36 37 38 37 36 36 36 36 36 37 38 38 38 38 38 38 38 38 39 39 39 40 41 42 42 42 43 44 45 45 46 47 47 47 46 46 47 47 46 47
34 36 37 39 39 38 36 36 36 36 36 37 38 38 38 38 38 39 39 39 39 40 40 41 42 44 44 44 45 45 45 45 46 48 48 47 46 46 46 46 46 48
34 35 37 39 39 38 36 36 36 36 36 37 37 38 38 39 39 39 40 40 41 41 42 43 44 45 45 45 46 46 46 46 47 49 49 48 48 46 45 46 48 50
33 35 38 40 39 38 36 36 36 36 37 37 37 38 39 39 39 40 41 41 42 43 44 45 46 46 46 47 47 47 47 48 49 50 49 50 50 47 46 47 49 48
35 37 40 40 38 37 36 36 36 36 36 37 38 39 39 39 40 41 42 43 44 45 45 46 46 46 47 48 47 48 49 49 50 50 49 51 50 48 48 48 46 45
37 39 40 40 38 37 36 36 36 36 37 37 38 40 41 41 42 43 44 45 45 46 46 47 46 45 46 47 48 49 50 50 51 50 50 50 49 49 49 47 45 43
38 41 41 39 37 36 36 36 37 37 38 40 41 42 43 43 44 45 45 45 45 46 47 47 47 45 44 45 46 48 50 51 51 50 49 47 46 48 48 45 43 41
39 43 41 38 35 35 37 37 38 39 40 41 43 44 44 45 46 46 46 46 45 45 46 46 46 46 46 45 45 48 51 51 50 49 47 43 43 47 46 43 42 41
41 43 40 37 36 36 38 38 39 40 41 43 45 46 47 47 47 47 47 47 46 45 45 45 46 47 47 46 46 48 49 48 49 49 47 44 45 46 45 43 42 40
42 42 38 36 37 38 39 40 40 41 42 45 46 47 48 48 48 48 48 47 47 46 46 45 46 47 47 47 47 47 46 45 46 46 45 44 45 45 42 41 40 39
43 42 37 37 39 40 41 41 41 42 44 46 47 48 49 49 49 49 48 48 47 47 46 46 46 47 48 49 48 45 45 46 44 40 40 42 42 40 39 38 37 36
45 42 38 39 41 41 42 42 42 44 46 48 49 50 50 50 50 49 48 47 47 46 46 47 47 47 48 49 48 45 46 47 44 40 41 42 40 38 36 34 34 34
44 41 40 42 42 43 44 44 44 46 48 50 51 50 50 51 51 48 46 45 45 46 46 47 48 49 49 48 47 45 44 45 44 43 42 42 40 37 34 32 32 33
43 42 43 44 44 45 45 45 47 49 50 51 51 51 51 52 51 48 46 44 44 46 47 48 50 49 48 47 46 44 43 44 44 42 41 41 39 37 34 32 32 31
43 44 45 45 45 45 46 47 49 51 52 52 52 53 53 53 52 50 48 46 46 48 49 49 50 49 48 47 43 42 43 43 41 39 38 38 36 34 33 32 31 31
44 45 47 47 47 47 47 49 51 52 53 54 54 54 53 52 51 50 50 50 49 49 49 49 50 48 46 44 41 42 43 42 40 38 35 33 32 32 32 32 32 32
45 46 47 47 48 48 49 51 52 53 54 54 53 53 52 50 50 50 50 50 49 49 49 50 49 46 43 41 42 44 44 42 40 38 34 31 31 31 31 31 31 32
46 47 47 48 49 49 50 52 54 54 54 53 52 52 49 47 48 50 49 49 49 49 49 48 46 43 42 42 44 46 46 44 41 37 33 31 30 30 31 32 32 31
47 48 48 48 49 51 52 54 54 55 54 52 51 49 47 47 48 49 47 47 48 49 48 46 42 41 42 43 44 45 45 43 41 36 32 30 29 30 31 32 32 31
48 48 49 49 51 52 53 54 55 55 54 53 52 48 47 47 47 46 45 44 45 48 49 47 44 41 40 40 41 43 41 40 39 34 31 30 29 29 30 31 30 31
47 48 49 50 50 51 52 53 54 55 54 54 53 50 48 47 46 45 45 43 42 44 47 48 45 41 38 37 38 40 40 38 35 31 29 29 27 27 29 30 30 30
47 50 50 48 48 50 52 53 53 53 54 54 54 52 48 47 47 47 45 43 41 42 44 46 42 39 40 38 35 36 38 36 32 29 27 27 26 27 29 30 30 29
Wind_Direction
307 308 309 310 309 309 309 309 311 312 313 313 312 312 312 313 312 312 311 310 311 311 312 313 314 314 314 315 315 316 316 316 317 318 317 314 311 308 307 306 306 305
305 307 309 310 310 309 308 307 308 309 311 312 312 312 312 313 312 311 310 309 309 309 310 311 312 313 313 313 314 315 315 315 315 316 315 313 311 308 307 305 304 304
304 306 308 309 310 309 307 305 305 307 308 309 311 312 313 313 312 311 310 309 308 308 308 309 310 311 312 313 314 313 313 313 314 314 313 312 310 308 305 304 303 303
303 305 307 308 309 308 307 305 304 305 306 308 310 312 313 313 312 311 311 310 309 308 307 308 308 310 312 313 313 312 312 313 313 313 311 309 307 304 302 301 300 300
304 305 307 308 308 308 306 305 304 305 306 307 310 312 313 314 313 312 312 310 309 308 307 308 309 310 312 312 312 312 312 313 312 312 310 307 304 302 299 298 297 298
304 305 307 309 309 308 306 306 305 305 307 308 311 313 314 314 314 314 313 311 310 309 309 309 309 310 312 312 312 312 313 312 312 312 309 306 303 301 298 295 295 297
304 304 309 310 308 307 307 307 307 307 308 308 310 313 314 314 315 314 313 313 312 311 310 310 310 311 312 312 312 313 313 312 312 311 308 305 304 302 298 294 294 297
306 307 311 311 308 308 308 308 308 307 308 310 312 315 316 316 316 315 315 314 313 312 311 310 311 311 312 312 312 313 312 312 312 310 307 305 304 303 300 297 298 298
309 309 310 309 308 309 309 309 308 307 308 310 313 316 317 317 317 317 316 315 313 312 311 310 311 312 312 312 313 313 312 312 312 310 307 306 305 303 302 301 301 300
310 309 310 309 308 309 309 309 309 309 309 310 313 317 318 319 319 318 316 315 313 312 312 311 312 313 314 314 314 313 312 313 312 309 307 306 304 302 303 303 303 301
308 308 309 308 309 310 310 310 310 311 312 314 318 319 320 319 319 317 316 315 314 313 313 313 313 314 315 314 314 313 312 313 311 309 308 306 303 303 306 306 305 301
306 307 308 308 311 312 312 312 312 313 315 318 320 320 319 319 318 317 316 316 315 315 315 314 314 315 315 315 313 311 311 312 310 308 307 305 304 307 309 307 304 300
305 306 308 311 314 314 312 312 312 313 316 319 320 320 319 318 317 317 317 316 317 317 316 315 314 315 316 315 313 311 313 313 310 308 309 307 305 308 308 305 303 300
303 306 309 312 315 314 313 312 312 314 318 319 319 318 317 316 316 317 317 317 318 317 316 315 314 315 315 315 314 312 314 314 310 308 309 308 305 306 305 303 300 299
301 306 310 312 314 313 311 311 312 316 318 317 316 315 315 315 316 317 317 318 318 316 315 314 314 315 315 315 315 314 313 312 308 305 306 307 306 305 303 300 299 299
300 306 311 312 312 311 309 310 313 316 316 314 314 314 314 315 316 316 317 318 316 314 314 314 314 315 315 315 316 316 313 311 306 302 303 304 304 304 301 299 299 299
301 308 311 311 311 309 309 311 313 314 313 312 313 314 314 315 315 315 316 316 314 313 313 313 314 314 315 315 316 316 313 309 305 302 302 302 300 300 298 295 296 297
304 309 310 309 309 309 309 311 312 311 311 312 313 313 314 315 314 314 315 315 312 311 311 312 313 313 313 314 316 314 311 308 305 303 302 300 297 296 295 293 292 294
307 309 308 308 308 308 309 309 309 309 310 312 312 313 315 315 313 313 315 314 311 310 310 311 312 311 312 314 313 310 308 307 304 300 299 298 295 293 294 293 291 293
306 307 306 307 307 307 307 307 307 309 310 311 312 314 315 314 312 313 314 312 309 308 309 311 312 311 313 314 312 308 306 305 302 298 297 296 293 292 293 293 294 297
304 304 305 305 305 305 305 305 307 308 309 310 312 315 316 314 313 313 312 308 307 307 308 310 312 312 313 314 313 312 308 305 303 299 297 296 292 291 296 297 298 301
301 302 303 303 303 303 304 305 305 306 308 311 314 315 314 312 311 311 309 306 306 308 309 312 314 315 315 315 316 314 310 306 304 299 296 297 292 292 297 300 300 304
300 301 301 301 301 302 302 303 304 305 309 312 313 312 309 308 309 308 307 307 308 309 310 312 315 315 316 317 317 315 312 307 302 298 296 296 292 292 298 301 303 307
299 299 299 300 300 301 301 303 304 307 310 312 312 310 307 307 308 307 306 307 308 309 311 313 314 315 315 316 317 317 316 310 303 297 296 296 292 294 299 301 304 309
296 297 297 299 301 300 301 304 307 309 310 310 311 310 308 308 308 306 306 307 307 309 312 314 314 314 313 313 316 319 318 314 306 298 297 298 296 297 300 302 305 311
295 295 296 298 300 300 302 306 308 308 309 310 311 310 309 308 308 307 308 309 309 309 312 314 315 312 306 306 314 321 320 315 307 299 298 300 300 300 301 302 306 312